DW0805 Weather Reports


Display with metric or nautical units.
time (UTC)temp
F
wind
direction
speed
MPH
gust
MPH
rain 1hr
in
rain 24hr
in
rain mn
in
humidity
%
barometer
mb
20260903030515 59 226 2.0 5.0 0.00 0.09 0.00 92 1012.4
20260903024515 59 225 3.0 5.0 0.00 0.09 0.00 91 1012.7
20260903023516 59 248 2.0 3.0 0.00 0.09 0.00 91 1012.7
20260903015515 59 248 2.0 3.0 0.00 0.09 0.00 91 1013.2
20260903005516 59 248 3.0 6.0 0.00 0.09 0.00 89 1013.3
20260903004516 59 238 5.0 6.0 0.00 0.09 0.00 88 1013.4
20260903003515 59 238 3.0 8.0 0.00 0.09 0.00 88 1013.5
20260903002515 59 251 7.0 12.0 0.00 0.09 0.00 87 1013.5
20260903000515 59 263 5.0 8.0 0.00 0.09 0.00 88 1013.6
20260902235515 59 254 5.0 12.0 0.00 0.09 0.00 87 1013.6
20260902224515 59 247 6.0 13.0 0.00 0.09 0.00 88 1013.7
20260902221511 59 240 5.0 10.0 0.00 0.09 0.00 90 1013.8
20260902215515 59 241 7.0 13.0 0.00 0.13 0.09 91 1013.6
20260902213515 60 238 6.0 12.0 0.00 0.13 0.09 93 1013.5
20260902212515 60 243 7.0 13.0 0.00 0.13 0.09 93 1013.4
20260902211516 60 235 6.0 13.0 0.00 0.13 0.09 93 1013.5
20260902210515 60 229 7.0 12.0 0.00 0.13 0.09 93 1013.5
20260902203515 60 232 6.0 12.0 0.00 0.13 0.09 93 1013.6
20260902194516 60 232 9.0 14.0 0.00 0.13 0.09 92 1013.6
20260902193514 60 225 7.0 14.0 0.00 0.13 0.09 92 1013.6
20260902191514 60 239 8.0 14.0 0.00 0.13 0.09 92 1013.6
20260902190514 60 232 7.0 14.0 0.00 0.13 0.09 92 1013.6
20260902185516 60 232 9.0 16.0 0.00 0.13 0.09 92 1013.6
20260902184515 60 249 9.0 14.0 0.00 0.13 0.09 92 1013.5
20260902183513 61 233 7.0 13.0 0.00 0.13 0.09 92 1013.3
20260902181515 61 287 10.0 15.0 0.00 0.13 0.09 91 1013.2
20260902171514 63 232 9.0 14.0 0.00 0.13 0.09 89 1013.1
20260902165515 62 232 7.0 16.0 0.00 0.13 0.09 90 1013.3
20260902164515 62 233 12.0 16.0 0.00 0.13 0.09 90 1013.3
20260902161515 64 197 10.0 17.0 0.00 0.13 0.09 89 1013.4
20260902154514 62 233 10.0 15.0 0.00 0.13 0.09 90 1013.5
20260902152514 62 277 9.0 15.0 0.00 0.13 0.09 91 1013.6
20260902151514 62 221 9.0 16.0 0.00 0.13 0.09 91 1013.7
20260902145514 62 246 10.0 17.0 0.00 0.13 0.09 92 1013.7
20260902144514 62 222 8.0 16.0 0.00 0.13 0.09 93 1013.6
20260902140514 61 237 6.0 13.0 0.02 0.13 0.09 93 1013.7
20260902135514 60 248 6.0 10.0 0.05 0.13 0.09 93 1013.7
20260902134515 60 237 4.0 9.0 0.09 0.13 0.09 93 1013.7
20260902132514 59 237 6.0 10.0 0.09 0.13 0.09 92 1013.9
20260902131514 59 237 6.0 13.0 0.09 0.13 0.09 91 1014.0
20260902125515 62 315 17.0 28.0 0.05 0.09 0.05 84 1013.9
20260902124514 65 254 12.0 16.0 0.00 0.04 0.00 84 1013.7
20260902122514 67 233 10.0 17.0 0.00 0.04 0.00 80 1013.7
20260902120515 68 247 11.0 20.0 0.00 0.04 0.00 78 1013.8
20260902115515 67 228 10.0 23.0 0.00 0.04 0.00 77 1013.9
20260902114515 67 280 10.0 21.0 0.00 0.04 0.00 76 1013.8
20260902113514 68 244 12.0 21.0 0.00 0.04 0.00 76 1013.9
20260902111515 69 229 11.0 22.0 0.00 0.04 0.00 74 1013.9
20260902105514 68 236 13.0 21.0 0.00 0.04 0.00 76 1014.0
20260902104514 68 241 14.0 20.0 0.00 0.04 0.00 76 1014.0
20260902094515 67 248 13.0 21.0 0.00 0.04 0.00 78 1014.0
20260902091514 66 252 10.0 17.0 0.00 0.04 0.00 82 1014.1
20260902085514 66 313 10.0 17.0 0.00 0.04 0.00 83 1014.1
20260902084514 65 231 12.0 16.0 0.00 0.04 0.00 83 1014.1
20260902083514 65 307 8.0 13.0 0.00 0.04 0.00 86 1014.2
20260902081515 64 295 6.0 16.0 0.00 0.04 0.00 87 1014.1
20260902080515 63 236 13.0 17.0 0.00 0.04 0.00 87 1014.2
20260902075514 64 235 9.0 16.0 0.00 0.04 0.00 88 1014.1
20260902070515 63 223 9.0 16.0 0.00 0.04 0.00 90 1013.8
20260902065514 62 233 10.0 15.0 0.00 0.04 0.00 90 1013.9
20260902064516 62 234 9.0 15.0 0.00 0.04 0.00 90 1013.9
20260902063514 62 244 11.0 17.0 0.00 0.04 0.00 91 1013.9
20260902060515 61 228 9.0 15.0 0.00 0.04 0.00 91 1013.9
20260902051515 60 251 7.0 13.0 0.00 0.04 0.00 92 1013.9
20260902041515 59 230 7.0 14.0 0.00 0.04 0.00 92 1013.8
20260902034514 59 234 6.0 9.0 0.00 0.04 0.00 92 1013.9
20260902033514 59 217 6.0 12.0 0.00 0.04 0.00 92 1014.0